| time (UTC) | temp F | wind direction | speed MPH | gust MPH | rain 1hr in | rain 24hr in | rain mn in | humidity % | barometer mb |
| 20260510050715 | 45 | 251 | 0.0 | 0.0 | 0.00 | 0.39 | 0.00 | 84 | 1011.9 |
| 20260510043715 | 46 | 246 | 0.0 | 0.0 | 0.00 | 0.39 | 0.00 | 84 | 1011.5 |
| 20260510030714 | 47 | 219 | 0.0 | 0.0 | 0.00 | 0.39 | 0.00 | 84 | 1011.6 |
| 20260510030214 | 47 | 219 | 0.0 | 0.0 | 0.00 | 0.39 | 0.00 | 84 | 1011.6 |
| 20260510023714 | 48 | 219 | 0.0 | 0.0 | 0.00 | 0.39 | 0.00 | 84 | 1011.5 |
| 20260510023214 | 48 | 219 | 0.0 | 0.0 | 0.00 | 0.39 | 0.00 | 84 | 1011.6 |
| 20260510020715 | 49 | 219 | 0.0 | 0.0 | 0.00 | 0.39 | 0.00 | 84 | 1011.8 |
| 20260510013715 | 50 | 227 | 0.0 | 0.0 | 0.00 | 0.39 | 0.00 | 84 | 1011.4 |
| 20260510010715 | 50 | 236 | 0.0 | 0.0 | 0.00 | 0.39 | 0.00 | 84 | 1011.4 |
| 20260510010215 | 50 | 236 | 0.0 | 0.0 | 0.00 | 0.39 | 0.00 | 84 | 1011.4 |
| 20260510003714 | 51 | 236 | 0.0 | 0.0 | 0.00 | 0.39 | 0.00 | 84 | 1011.7 |
| 20260510003214 | 51 | 236 | 0.0 | 0.0 | 0.00 | 0.39 | 0.00 | 84 | 1011.7 |
| 20260510000715 | 52 | 236 | 0.0 | 0.0 | 0.00 | 0.39 | 0.00 | 84 | 1011.7 |
| 20260509233715 | 54 | 236 | 0.0 | 0.0 | 0.00 | 0.39 | 0.00 | 84 | 1011.7 |
| 20260509220715 | 55 | 236 | 0.0 | 0.0 | 0.00 | 0.39 | 0.00 | 84 | 1011.8 |
| 20260509203714 | 55 | 236 | 0.0 | 0.0 | 0.00 | 0.39 | 0.39 | 84 | 1011.4 |
| 20260509200214 | 55 | 236 | 0.0 | 0.0 | 0.00 | 0.39 | 0.39 | 84 | 1010.8 |
| 20260509193214 | 56 | 236 | 0.0 | 0.0 | 0.00 | 0.39 | 0.39 | 84 | 1010.5 |
| 20260509190714 | 56 | 247 | 0.0 | 0.0 | 0.01 | 0.39 | 0.39 | 84 | 1010.3 |
| 20260509190214 | 56 | 225 | 0.0 | 0.0 | 0.01 | 0.39 | 0.39 | 84 | 1010.3 |
| 20260509183714 | 56 | 61 | 0.0 | 0.0 | 0.01 | 0.39 | 0.39 | 84 | 1010.0 |
| 20260509173713 | 56 | 50 | 0.0 | 0.0 | 0.08 | 0.39 | 0.39 | 84 | 1009.5 |
| 20260509173213 | 56 | 29 | 0.0 | 0.0 | 0.10 | 0.39 | 0.39 | 84 | 1009.5 |
| 20260509170713 | 55 | 70 | 0.0 | 0.0 | 0.17 | 0.36 | 0.36 | 85 | 1010.1 |
| 20260509170214 | 55 | 65 | 0.0 | 2.0 | 0.20 | 0.36 | 0.36 | 85 | 1010.3 |
| 20260509160714 | 56 | 250 | 0.0 | 0.0 | 0.17 | 0.19 | 0.19 | 84 | 1011.6 |
| 20260509160214 | 56 | 250 | 0.0 | 10.0 | 0.15 | 0.17 | 0.17 | 84 | 1011.7 |
| 20260509153714 | 58 | 218 | 2.0 | 8.0 | 0.02 | 0.03 | 0.03 | 83 | 1011.5 |
| 20260509153214 | 58 | 217 | 0.0 | 3.0 | 0.02 | 0.02 | 0.02 | 84 | 1011.3 |
| 20260509150714 | 58 | 89 | 0.0 | 0.0 | 0.02 | 0.02 | 0.02 | 83 | 1009.6 |
| 20260509150214 | 58 | 91 | 0.0 | 0.0 | 0.02 | 0.02 | 0.02 | 83 | 1009.5 |
| 20260509140713 | 61 | 138 | 0.0 | 0.0 | 0.00 | 0.00 | 0.00 | 79 | 1010.3 |
| 20260509133713 | 62 | 217 | 0.0 | 0.0 | 0.00 | 0.00 | 0.00 | 77 | 1010.7 |
| 20260509130213 | 62 | 150 | 0.0 | 0.0 | 0.00 | 0.00 | 0.00 | 78 | 1011.0 |
| 20260509123713 | 61 | 114 | 0.0 | 0.0 | 0.00 | 0.00 | 0.00 | 77 | 1010.8 |
| 20260509110213 | 63 | 116 | 0.0 | 0.0 | 0.00 | 0.00 | 0.00 | 74 | 1012.0 |
| 20260509100713 | 63 | 108 | 0.0 | 0.0 | 0.00 | 0.00 | 0.00 | 73 | 1012.2 |
| 20260509090213 | 61 | 65 | 0.0 | 0.0 | 0.00 | 0.00 | 0.00 | 78 | 1011.9 |
| 20260509083212 | 57 | 103 | 0.0 | 0.0 | 0.00 | 0.00 | 0.00 | 82 | 1012.2 |
| 20260509080712 | 56 | 67 | 0.0 | 0.0 | 0.00 | 0.00 | 0.00 | 84 | 1012.3 |
| 20260509080212 | 56 | 66 | 0.0 | 2.0 | 0.00 | 0.00 | 0.00 | 84 | 1012.2 |
| 20260509073212 | 56 | 80 | 0.0 | 1.0 | 0.00 | 0.00 | 0.00 | 85 | 1012.3 |
| 20260509070212 | 55 | 178 | 0.0 | 0.0 | 0.00 | 0.00 | 0.00 | 84 | 1012.5 |
| 20260509063712 | 54 | 190 | 0.0 | 0.0 | 0.00 | 0.00 | 0.00 | 84 | 1012.5 |
| 20260509063212 | 53 | 190 | 0.0 | 0.0 | 0.00 | 0.00 | 0.00 | 84 | 1012.6 |
| 20260509060712 | 52 | 175 | 0.0 | 0.0 | 0.00 | 0.00 | 0.00 | 84 | 1012.9 |
| 20260509053712 | 51 | 242 | 0.0 | 0.0 | 0.00 | 0.00 | 0.00 | 85 | 1012.7 |